#timestamp,LO_Frequency,Hit,StdDev 
1585872015.7,286047000.8,N
1585872035.5,286047002.8,N
1585872055.4,286046998.2,N
1585872075.2,286047000.9,N
1585872095.0,286047000.7,N
1585872095.9,286047000.7,N
1585872115.8,286046998.3,N
1585872135.6,286046999.8,N
1585872155.5,286047004.4,N
1585872175.3,286047001.9,N
1585872195.1,286047002.5,N
1585872215.9,286046999.9,N
1585872235.7,286047000.6,N
1585872255.6,286047001.3,N
1585872275.4,286047002.4,N
1585872295.2,286047004.4,N
1585872315.1,286047001.7,N
1585872316.0,286047001.7,N
1585872335.8,286047003.2,N
1585872355.7,286047006.0,Y
1585872375.5,286047003.3,P
1585872395.3,286047003.2,P
1585872415.2,286047004.7,P
1585872435.0,286047003.3,Y
1585872435.9,286047003.3,P
1585872455.8,286047000.5,P
1585872475.6,286046998.1,N
1585872495.4,286047000.1,N
1585872515.3,286047001.7,N
1585872535.1,286046998.1,N
1585872555.9,286046999.3,N
1585872575.7,286046997.0,N
1585872595.5,286046996.7,N
1585872615.4,286046993.9,N
1585872635.2,286046993.5,N
1585872655.0,286046996.2,N
1585872655.9,286046996.2,N
1585872675.8,286046995.1,N
1585872695.6,286046996.9,N
1585872715.5,286046998.5,N
1585872735.3,286046998.3,N
1585872755.1,286046998.5,N
1585872775.9,286046998.0,N
1585872795.7,286046995.3,N
1585872815.6,286046996.5,N
1585872835.4,286046999.2,N
1585872855.2,286046999.3,N
1585872875.1,286046997.7,N
1585872876.0,286046997.7,N
1585872895.8,286046996.4,N
1585872915.6,286046994.9,N
1585872935.5,286046996.2,N
1585872955.3,286046997.5,N
1585872975.2,286046996.0,N
1585872995.9,286046994.6,N
1585873015.7,286046996.1,N
1585873035.6,286046996.4,N
1585873055.4,286046994.9,N
1585873075.3,286046993.6,Y
1585873095.1,286047000.6,P
1585873096.0,286047000.6,N
1585873115.8,286046998.6,N
1585873135.7,286047000.3,N
1585873155.5,286047001.2,N
1585873175.4,286046999.3,N
1585873195.2,286046997.5,N
1585873215.0,286046998.8,N
1585873215.9,286046998.8,N
1585873235.9,286046998.1,N
1585873255.7,286047002.7,N
1585873275.6,286047000.5,N
1585873295.4,286047001.2,N
1585873315.2,286047001.1,N
1585873335.1,286047000.4,N
1585873336.0,286047000.4,N
1585873355.8,286047000.4,N
1585873375.6,286047000.0,N
1585873395.5,286047001.3,N
1585873415.3,286046998.5,N
1585873435.2,286046996.8,N
1585873455.9,286046998.6,N
1585873475.7,286046996.6,N
1585873495.6,286046998.5,N
1585873515.4,286047000.8,N
1585873535.2,286046998.3,N
1585873555.1,286046999.2,N
1585873556.0,286046999.2,N
1585873575.8,286047001.2,N
1585873595.7,286047000.7,N
1585873615.5,286046999.2,N
1585873635.3,286047000.4,N
1585873655.2,286046998.3,N
1585873675.0,286046999.2,N
1585873675.9,286046999.2,N
1585873695.8,286046999.6,N
1585873715.6,286046998.6,N
1585873735.4,286047002.3,N
1585873755.3,286047004.2,N
1585873775.1,286047000.0,N
1585873795.9,286047001.1,N
1585873815.7,286046998.1,N
1585873835.6,286047001.2,N
1585873855.4,286047002.2,N
1585873875.2,286046998.2,N
1585873895.1,286047001.2,N
1585873896.0,286047001.2,N
1585873915.8,286047000.7,N
1585873935.6,286047000.0,N
1585873955.5,286047001.2,N
1585873975.3,286046998.3,N
1585873995.2,286046998.9,N
1585874015.9,286046997.6,N
1585874035.7,286046998.1,N
1585874055.6,286046998.8,N
1585874075.4,286046998.4,N
1585874095.2,286047000.1,N
1585874115.1,286046998.2,N
1585874116.0,286046998.2,N
1585874135.8,286047000.2,N
1585874155.7,286047001.0,N
1585874175.5,286047000.9,N
1585874195.3,286047001.2,N
1585874215.2,286047002.5,N
1585874235.0,286047000.4,N
1585874235.9,286047000.4,N
1585874255.8,286047000.4,N
1585874275.6,286047002.5,N
1585874295.4,286047001.4,N
1585874315.3,286047001.9,N
1585874335.1,286047000.3,N
1585874355.9,286046998.2,N
1585874375.7,286047000.2,N
1585874395.5,286046999.9,N
1585874415.4,286046999.5,N
1585874435.2,286046996.7,N
1585874455.0,286046998.1,N
1585874455.9,286046998.1,N
1585874475.8,286047000.2,N
1585874495.6,286047000.3,N
1585874515.5,286047001.2,N
1585874535.3,286047000.5,N
1585874555.1,286046999.9,N
1585874575.9,286046999.0,N
1585874595.7,286046999.2,N
1585874615.6,286046998.6,N
1585874635.4,286046999.3,N
1585874655.2,286047001.0,N
1585874675.1,286047001.2,N
1585874676.0,286047001.2,N
1585874695.8,286046998.6,N
1585874715.7,286046998.7,N
1585874735.5,286047000.5,N
1585874755.3,286046998.2,N
1585874775.2,286046996.9,N
1585874795.0,286046996.6,N
1585874795.9,286046996.6,N
1585874815.8,286046997.0,N
1585874835.6,286046999.0,N
1585874855.4,286046997.1,N
1585874875.3,286046996.5,N
1585874895.1,286046997.7,N
1585874915.9,286046995.1,Y
1585874935.7,286046997.7,P
1585874955.5,286046998.0,P
1585874975.4,286046995.7,P
1585874995.2,286046995.8,Y
1585875015.1,286046999.6,P
1585875016.0,286046999.6,N
1585875035.8,286046999.5,N
1585875055.7,286046997.0,Y
1585875075.5,286046996.6,P
1585875095.3,286046999.5,N
1585875115.2,286046999.6,N
1585875135.0,286046997.2,N
1585875135.9,286046997.2,N
1585875155.7,286046997.3,N
1585875175.6,286046996.7,N
1585875195.4,286046997.3,N
1585875215.3,286046997.1,N
1585875235.1,286046996.5,Y
1585875236.0,286046996.5,P
1585875255.8,286046999.5,N
1585875275.7,286046997.0,N
1585875295.5,286046997.8,N
1585875315.4,286046997.6,N
1585875335.2,286046996.9,Y
1585875355.0,286046998.5,P
1585875355.9,286046998.5,P
1585875375.8,286046998.3,P
1585875395.6,286046998.5,Y
1585875415.5,286046999.9,P
1585875435.3,286047001.2,N
1585875455.1,286046998.3,N
1585875475.9,286047000.3,N
1585875495.7,286047000.8,N
1585875515.5,286047000.4,N
1585875535.4,286046998.8,N
1585875555.2,286046998.5,N
1585875575.1,286047000.9,N
1585875576.0,286047000.9,N
1585875595.8,286047000.2,N
